Weather in Sarykol

Kazakhstan     53°19′00″N   65°32′10″E
temp.,
°C
wind,
m/s
gust,
m/s
humid.,
%
clouds,
%
prec.,
mm/h
press.,
hPa
HPBL,
m
14 may, fri
fri1400:00+19n33445 0.0 102423
03:00+18n22475 0.0 102412
06:00+16ne335518 0.0 102522
09:00+21e34495 0.0 1026327
12:00+25ene34365 0.0 10261352
15:00+27ne33265 0.0 10252222
18:00+28ne322430 0.0 10252349
21:00+24ese33345 0.0 102522
15 may, sat
sat1500:00+20sse46390 0.0 102588
03:00+19ssw46420 0.0 102579
06:00+18sw45460 0.0 102560
09:00+23wsw46395 0.0 1025281
12:00+28wsw55289 0.0 10241161
15:00+30wsw562171 0.0 10223755
18:00+30wsw7722100 0.0 10213739
21:00+25ssw473496 0.0 1021180
16 may, sun
sun1600:00+21wsw333711 0.0 102131
03:00+19w33450 0.0 102141
06:00+18nw344830 0.0 102161
09:00+23nw4543100 0.0 1021248
12:00+28nw563156 0.0 10211131
15:00+31nnw672069 0.0 10202622
18:00+31nnw561953 0.0 10202981
21:00+26nw33285 0.0 102028
17 may, mon
mon1700:00+23nne223380 0.0 102011
03:00+22s22365 0.0 102011
06:00+20sw223823 0.0 102114
09:00+25sw34315 0.1 1021256
12:00+31w46235 0.1 10202167
15:00+32w5618100 0.0 10193610
18:00+32w77167 0.1 10173723
21:00+25ene233776 0.0 101845
18 may, tue
tue1800:00+21sse344628 0.0 101761
03:00+22w113999 0.0 101611
06:00+19nnw33456 0.0 101739
09:00+25n3533100 0.0 1016267
12:00+29nw442712 0.0 10161456
15:00+31nw5724100 0.0 10153885
18:00+29nnw782466 0.1 10143300
21:00+24nw364133 0.0 1015136